STARLINK-1307, 45397

Orbit data source: Space-Track

STARLINK-1307, 45397 is a payload satellite owned by SpaceX/Seattle (US) in LEO that was launched on Wed, 18 Mar 2020 UTC via an FALCON 9 launch vehicle from the Air Force Eastern Test Range (AFETR). Payload-class satellites include a variety of spacecraft equipped with specific instruments for various scientific and technological missions. These include communications satellites like Starlink; space stations such as the ISS; scientific satellites like the Hubble; Earth observation satellites from companies like Planet Labs, Umbra, and HawkEye 360; GPS; miniature CubeSats for education and research; and military/defense satellites.

Loading next visibility...
Identifier
45397, 2020-019AP
Orbit
LEO
Last TLE update
1 day ago
Origin
Manufacturer
SpaceX/Seattle
Mission
Operational Commercial Communications
Bus & Motor
STARLINK, Unknown motor
Mass
260 kg wet, ~248 kg dry
Launch date (UTC)
2020-03-18 (5 years ago)
Launch vehicle
FALCON 9
Launch site
Air Force Eastern Test Range (AFETR)
Object type
Payload
Rocket body
Debris
Shape & HBR
Box + 1 Pan, 8.86 m
Radar Cross Section
13.562 m², Large (>1 m²)

Expand to show TLE details & history

TLE from 1 day ago
0 STARLINK-1307
1 45397U 20019AP  25114.38834149  .00000461  00000-0  49864-4 0  9999
2 45397  53.0538 140.0143 0001538  88.6200 271.4965 15.06394111281701
Epoch: 2025-04-24T09:19Z
Definitive object data (Epoch: 2025-04-24T09:19:12.704Z)
Latitude
-0.00005°
Longitude
147.55084°
Altitude
548.081 km
Speed
7.589 km/s
True Right ascension
09h 20m 03s
True Declination
0° 00' 00"
Sunlit
Object was in daylight at TLE epoch
Visualization TLE readout
Latitude
-1.11304°
Longitude
141.05873°
Altitude
548.323 km
Speed
7.589 km/s
Apparent Right ascension
09h 41m 35s
Apparent Declination
-20° 08' 29"
Sunlit
Object is in daylight
Visualization observer readout
Local Sidereal Time
22:49:14
Azimuth
41.172° NE
Elevation
-65.49°
Doppler factor
1
Orbital elements
Apogee altitude
548.566 km
Perigee altitude
546.435 km
Semi-major axis
6,925.637 km
Eccentricity
0.0001538
Inclination
53.0538°
RAAN
140.0143°
Arg. of periapsis
88.62°
True anomaly
271.47888°
Mean anomaly
271.4965°
Eccentric anomaly
271.48769°
Mean motion
3.76577 °/min
BSTAR
0.000049864
Orbital period
95.6 mins
Loading maneuver chart data...
Loading SW <> Apogee altitude chart data...
Loading historical data...
Loading historical data...
Loading historical data...
Loading historical data...
Loading historical data...
Loading historical data...
Loading historical data...

STARLINK-1307 Visibility forecast

Observer location: undefined°, undefined°

Span
Click to sort rows by Start time (UTC) header in descending order
Start Az.
Max El. time (UTC)
Max El. Az.
Max El.
End time (UTC)
End Az.
5 mins2025-04-26 02:52:05.713Z173.994° S2025-04-26 02:55:05.713Z122.135° SE19.593°2025-04-26 02:57:05.713Z87.564° E
6 mins2025-04-26 04:31:05.713Z250.449° W2025-04-26 04:34:05.713Z328.367° NNW39.057°2025-04-26 04:37:05.713Z39.121° NE
5 mins2025-04-26 09:34:05.713Z347.396° N2025-04-26 09:36:05.713Z34.662° NE24.878°2025-04-26 09:39:05.713Z85.263° E
6 mins2025-04-26 11:13:05.713Z293.709° NW2025-04-26 11:15:05.713Z249.333° W37.519°2025-04-26 11:19:05.713Z149.397° SSE
|